Regional Weather Roundup
Issued by NWS New Orleans/Baton Rouge, LA

Home | Current Version | Previous Version | Text Only | Print | Product List | Glossary On
Versions: 1 2 3 4 5 6 7 8 9 10 11 12 13 14 15 16 17 18 19 20 21 22 23 24 25 26 27 28 29 30 31 32 33 34 35 36 37 38 39 40 41 42 43 44 45 46 47 48 49 50
000
ASUS44 KLIX 230806
RWRLIX
NEW ORLEANS REGIONAL WEATHER ROUNDUP
NATIONAL WEATHER SERVICE NEW ORLEANS LA
300 AM CDT MON APR 23 2018

NOTE: "FAIR" INDICATES FEW OR NO CLOUDS BELOW 12,000 FEET WITH NO
      SIGNIFICANT WEATHER AND/OR OBSTRUCTIONS TO VISIBILITY.
      SKY/WX - SKY CONDITION AND SIGNIFICANT WEATHER.
      TMP - AIR TEMPERATURE.     DP    - DEWPOINT TEMPERATURE.
      RH  - RELATIVE HUMIDITY.   PRES  - PRESSURE.
      HI  - HEAT INDEX.          WCI   - WIND CHILL INDEX.

*  THESE STATIONS ARE NOT NWS OR FAA STATIONS AND ARE NOT UNDER
   NWS QUALITY CONTROL.

LAZ038-040-048-061>063-065>067-069-230900-
SOUTHEAST LOUISIANA

CITY           SKY/WX    TMP DP  RH WIND       PRES   REMARKS
N.O. INTL ARPT FAIR      61  51  70 NW8       29.96F
N.O. LAKEFRONT FAIR      63  51  65 NW18      29.96F
N.O. DOWNTOWN* FAIR      62  49  62 VRB7      29.97S
RESERVE*       FAIR      56  52  84 NW3       29.97S
SLIDELL        FAIR      56  52  86 CALM      29.94F
BATON ROUGE    FAIR      53  49  86 CALM      29.96F
BOOTHVILLE     CLOUDY    65  59  81 NW12      29.94F
BELLE CHASSE   FAIR      60  52  74 VRB5      29.95S
BOGALUSA*      FAIR      57  54  89 W3        29.94F
GALLIANO*      FAIR      58  50  74 N10       29.97R
NEW ROADS*     FAIR      52  49  90 SW3       29.97F
GONZALES*      FAIR      53  52  97 CALM      29.96F
HAMMOND*       FAIR      52  50  93 CALM      29.96S
HOUMA*         FAIR      56  53  90 NW6       29.97S
PORT FOURCHON* SUNNY     61  55  82 N10       29.98R

$$

MSZ070-080>082-230900-
SOUTHERN MISSISSIPPI

CITY           SKY/WX    TMP DP  RH WIND       PRES   REMARKS
MCCOMB         FAIR      53  49  86 CALM      29.94F
GULFPORT       MOCLDY    61  57  87 NW7       29.92S
BILOXI         CLOUDY    63  59  88 NW6       29.91S
PASCAGOULA     FAIR      63  60  90 NW3       29.90F

$$

COASTAL OBSERVATIONS
LAKE AND NEARSHORE STATIONS

STATION/POSITION TIME  SKY/WX   TEMP    WIND        PRES    WAVE
                                AIR SEA DIR/SP/G            HT/PER
                 (UTC)          (F)     (DEG/KT/KT) (MB)    (FT/S)
WAVELAND YACHT   0742            61 69  310/  8/ 11 1013.6
GRAND ISLE       0748            64 72  350/ 12/ 19 1014.6
SOUTHWEST PASS   0748            65 59  340/ 16/ 18 1014.3
NEW CANAL        0748            63 69  340/  2/  9 1014.3
SHELL BEACH      0742            63 73  320/ 19/ 22 1014.1

OFFSHORE STATIONS

STATION/POSITION TIME  SKY/WX   TEMP    WIND        PRES    WAVE
                                AIR SEA DIR/SP/G            HT/PER
                 (UTC)          (F)     (DEG/KT/KT) (MB)    (FT/S)
64 S DAUPHIN ISL 0750               73  260/ 12/ 16 1013.0    4/ 7

$$




USA.gov is the U.S. government's official web portal to all federal, state and local government web resources and services.